Puerto Plata, Dominican Republic

3:01 AM AST on March 27, 2017 (GMT -0400)
Puerto Plata

Weather History for MDPP - August, 2011

Change the Weather History Date:

Tuesday, August 23, 2011

  Actual Average Record
Temperature  
Mean Temperature 78 °F -  
Max Temperature 84 °F 88 °F 93 °F (2010)
Min Temperature 73 °F 74 °F 71 °F (2014)
Cooling Degree Days 14    
Growing Degree Days 28 (Base 50)    
Moisture  
Dew Point 77 °F    
Average Humidity 92    
Maximum Humidity 100    
Minimum Humidity 82    
Precipitation  
Precipitation 0.55 in - - ()
Sea Level Pressure  
Sea Level Pressure 29.57 in    
Wind  
Wind Speed 20 mph ()    
Max Wind Speed 78 mph    
Max Gust Speed 46 mph    
Visibility 5.3 miles    
Events Rain , Thunderstorm    
Averages and records for this station are not official NWS values.
T = Trace of Precipitation, MM = Missing Value Source: Averaged Metar Reports

Daily Weather History Graph

Daily Weather History Graph

Search for Another Location

Airport or City:

Trip Planner

Search our weather history database for the weather conditions in past years. The results will help you decide how hot, cold, wet, or windy it might be!

Date:

Astronomy

Aug. 23, 2011 Rise Set
Actual Time 6:24 AM AST 7:04 PM AST
Civil Twilight 6:01 AM AST 7:27 PM AST
Nautical Twilight 5:35 AM AST 7:53 PM AST
Astronomical Twilight 5:08 AM AST 8:20 PM AST
Moon 12:54 AM AST (8/23) 2:33 PM AST (8/23)
Length of Visible Light 13h 25m
Length of Day
12h 40m
Waning Crescent, 33% of the Moon is Illuminated
Aug 23
Waning Crescent
Aug 28
New
Sep 4
First Quarter
Sep 12
Full
Sep 20
Last Quarter

Hourly Weather History & Observations

Time (AST) Temp. Heat Index Dew Point Humidity Pressure Visibility Wind Dir Wind Speed Gust Speed Precip Events Conditions
2:00 AM 76 °F - 74 °F 93% 29.67 in 0 mi SW 11.2 mph - - Rain , Thunderstorm Thunderstorms and Rain
2:00 AM 75.2 °F - 75.2 °F 100% 29.65 in 0.3 mi NNE 57.5 mph - N/A Rain , Thunderstorm Heavy Thunderstorms and Rain
5:00 AM 75 °F - 74 °F 98% 32.48 in 0 mi West 78.3 mph - -   Overcast
5:00 AM 75.2 °F - 75.2 °F 100% 29.44 in 0.3 mi West 40.3 mph 23.0 mph N/A Rain , Thunderstorm Heavy Thunderstorms and Rain
7:00 AM 75.2 °F - 75.2 °F 100% - 0.6 mi South 23.0 mph 46.0 mph N/A Rain , Thunderstorm Heavy Thunderstorms and Rain
8:00 AM 76 °F - 75 °F 97% 29.80 in 5 mi South 33.6 mph - - Rain Light Rain
8:00 AM 77.0 °F - 75.2 °F 94% 29.27 in - South 34.5 mph - N/A Rain Light Rain
9:00 AM 78.8 °F - 73.4 °F 83% 29.59 in 6.2 mi WSW 11.5 mph - N/A   Overcast
10:00 AM 77.0 °F - 75.2 °F 94% 29.53 in 5.0 mi SSW 5.8 mph - N/A Rain Light Rain
11:00 AM 79 °F - 76 °F 89% 29.57 in 9 mi SSW 22.4 mph - - Rain Light Rain
11:00 AM 78.8 °F - 77.0 °F 94% 29.56 in 6.2 mi SSW 23.0 mph - N/A   Overcast
12:00 PM 80.6 °F 87.1 °F 77.0 °F 89% 29.56 in 6.2 mi SW 16.1 mph - N/A   Overcast
1:00 PM 82.4 °F 90.9 °F 77.0 °F 84% 29.56 in 6.2 mi SW 17.3 mph - N/A   Overcast
2:00 PM 81 °F - 76 °F 82% 29.59 in 9 mi SW 15.7 mph - - Rain Light Rain
2:00 PM 80.6 °F 87.1 °F 77.0 °F 89% 29.56 in 6.2 mi SW 16.1 mph - N/A   Mostly Cloudy
3:00 PM 84.2 °F 98.3 °F 80.6 °F 89% 29.56 in 6.2 mi Calm Calm - N/A   Overcast
4:00 PM 80.6 °F 87.1 °F 77.0 °F 89% 29.56 in 4.3 mi SSE 5.8 mph - N/A Rain Light Rain
4:07 PM - - - N/A% 29.56 in 6.2 mi SSE 5.8 mph - N/A   Overcast
5:00 PM 82 °F - 78 °F 85% 29.56 in 10 mi SE 6.7 mph - - Rain Light Rain
5:00 PM 82.4 °F 92.4 °F 78.8 °F 89% 29.56 in - North - - N/A   Overcast
6:00 PM 82.4 °F 92.4 °F 78.8 °F 89% 29.56 in 6.2 mi Calm Calm - N/A   Overcast
6:26 PM - - - N/A% 29.56 in 3.7 mi Calm Calm - N/A Rain Rain
7:00 PM 80.6 °F 89.3 °F 80.6 °F 100% 29.56 in 3.7 mi Calm Calm - N/A Rain Rain
8:00 PM 79 °F - 78 °F 96% 29.60 in 10 mi Calm Calm - - Rain Light Rain
8:00 PM 78.8 °F - 78.8 °F 100% 29.59 in 6.2 mi Calm Calm - N/A   Overcast
11:00 PM 80 °F - 76 °F 84% 29.64 in 10 mi Calm Calm - -   Mostly Cloudy
11:00 PM 78.8 °F - 77.0 °F 94% 29.62 in 6.2 mi Calm Calm - N/A Thunderstorm Light Thunderstorm